Location: State Camp
(41.2367°N, 77.7828°W)
Time: 13:48:04
(UTC-05:00)

ADEOS Rocket - Visible Passes

Search period start: 08 February 2016 00:00
Search period end: 18 February 2016 00:00
Orbit: 858 x 1308 km, 98.7° (Epoch: 08 February)

Date Brightness Start Highest point End Pass type
(mag) Time Alt. Az. Time Alt. Az. Time Alt. Az.
08 Feb 4.4 05:16:38 10° NNE 05:21:39 35° E 05:26:53 10° SSE visible
09 Feb 5.8 04:29:48 10° ENE 04:32:17 13° E 04:34:48 10° ESE visible
09 Feb 2.7 06:12:52 10° N 06:18:23 78° WNW 06:24:12 10° SSW visible
09 Feb 5.6 18:14:02 10° SSW 18:19:13 25° W 18:24:04 10° NW visible
10 Feb 4.1 05:24:08 10° NNE 05:29:22 41° E 05:34:52 10° SSE visible
11 Feb 5.6 04:36:42 10° NE 04:40:04 16° E 04:43:30 10° SE visible
11 Feb 2.8 06:20:33 10° N 06:26:02 66° WNW 06:31:51 10° SSW visible
11 Feb 5.8 18:22:21 10° SW 18:26:59 21° W 18:31:22 10° NW visible
12 Feb 3.8 05:31:39 10° NNE 05:37:03 49° E 05:42:48 10° S visible
13 Feb 5.4 04:43:51 10° NE 04:47:49 19° E 04:51:57 10° SE visible
13 Feb 2.9 06:28:14 10° N 06:33:40 56° WNW 06:39:29 10° SSW visible
13 Feb 5.9 18:30:47 10° SW 18:34:45 18° W 18:38:33 10° NW visible
14 Feb 3.5 05:39:12 10° NNE 05:44:44 59° ESE 05:50:41 10° S visible
15 Feb 5.2 04:51:06 10° NE 04:55:34 23° E 05:00:16 10° SE visible
15 Feb 3.1 06:35:56 10° N 06:41:18 48° WNW 06:47:04 10° SW visible
15 Feb 6.1 18:39:24 10° WSW 18:42:32 14° W 18:45:33 10° WNW visible
16 Feb 3.3 05:46:46 10° NNE 05:52:25 70° ESE 05:58:32 10° S visible
17 Feb 4.9 04:58:26 10° NE 05:03:18 28° E 05:08:28 10° SSE visible
17 Feb 6.4 18:48:27 10° WSW 18:50:19 11° W 18:52:09 10° WNW visible
